This is the latest recevied weather packets stored in our database for station/object KF0JJO. If no packets are shown the sender has not sent any weather packets the latest 10 day(s).
| Time | Temp. | Humidity | Pressure | Rain* | Wind** | Luminosity | Snow |
|---|---|---|---|---|---|---|---|
| 1777826417 | 19.44° C | 35% | 1038.3 hPa | 0 mm | - | 134 W/m² | - |
| 1777826114 | 19.44° C | 33% | 1038.1 hPa | 0 mm | - | 104 W/m² | - |
| 1777825811 | 18.89° C | 35% | 1037.8 hPa | 0 mm | - | 146 W/m² | - |
| 1777825508 | 18.89° C | 35% | 1038.1 hPa | 0 mm | - | 91 W/m² | - |
| 1777825206 | 18.89° C | 34% | 1038 hPa | 0 mm | - | 64 W/m² | - |
| 1777824902 | 18.89° C | 35% | 1038.1 hPa | 0 mm | - | 78 W/m² | - |
| 1777824598 | 18.89° C | 34% | 1037.9 hPa | 0 mm | - | 60 W/m² | - |
| 1777824295 | 18.89° C | 35% | 1037.9 hPa | 0 mm | - | 63 W/m² | - |
| 1777823990 | 18.89° C | 35% | 1038 hPa | 0 mm | - | 69 W/m² | - |
| 1777823688 | 18.33° C | 36% | 1037.9 hPa | 0 mm | - | 200 W/m² | - |
| 1777823384 | 18.33° C | 36% | 1038.1 hPa | 0 mm | - | 72 W/m² | - |
| 1777823083 | 18.33° C | 36% | 1037.9 hPa | 0 mm | - | 105 W/m² | - |
| 1777822780 | 18.33° C | 36% | 1038 hPa | 0 mm | - | 257 W/m² | - |
| 1777822478 | 17.78° C | 37% | 1038.1 hPa | 0 mm | - | 92 W/m² | - |
| 1777822175 | 17.78° C | 36% | 1037.8 hPa | 0 mm | - | 69 W/m² | - |
| 1777821872 | 17.78° C | 37% | 1037.9 hPa | 0 mm | - | 73 W/m² | - |
| 1777821570 | 17.78° C | 38% | 1037.9 hPa | 0 mm | - | 52 W/m² | - |
| 1777821268 | 17.22° C | 37% | 1037.8 hPa | 0 mm | - | 105 W/m² | - |
| 1777820965 | 17.22° C | 39% | 1037.9 hPa | 0 mm | - | 160 W/m² | - |
| 1777820661 | 17.22° C | 39% | 1037.9 hPa | 0 mm | - | 63 W/m² | - |
| 1777820357 | 17.22° C | 39% | 1037.9 hPa | 0 mm | - | 56 W/m² | - |
| 1777820055 | 16.67° C | 39% | 1037.7 hPa | 0 mm | - | 59 W/m² | - |
| 1777819751 | 16.67° C | 40% | 1037.8 hPa | 0 mm | - | 65 W/m² | - |
| 1777819450 | 16.67° C | 40% | 1037.6 hPa | 0 mm | - | 50 W/m² | - |
| 1777819148 | 16.67° C | 39% | 1037.6 hPa | 0 mm | - | 73 W/m² | - |
* Rain latest hour (hover to see other rain measurements)
** Current wind speed in m/s (hover to see current wind gust speed)